"SCET";"TARGET";"ELECTRON_DENSITY";"ERROR_FLAG";"ELECTRON_DENSITY_ERROR";"FREQ_FCE";"MEASURED_VALUE";"MEASURED_ITEM";"FREQ_PLASMA";"FREQ_UPPER_HYBRID";"FREQ_R_EQUALS_ZERO";"FREQ_L_EQUALS_ZERO";"ORBIT_NUMBER";"SATURN_RADIUS";"SATURN_IAU_LONGITUDE";"SATURN_SLS4_S_LONGITUDE";"SATURN_SLS4_N_LONGITUDE";"SATURN_SLS5_S_LONGITUDE";"SATURN_SLS5_N_LONGITUDE";"SATURN_LOCAL_TIME";"SATURN_KRONOGRAPHIC_LATITUDE";"SATURN_MAGNETIC_LATITUDE";"SATURN_L";"SATURN_L_OFFSET";"SATURN_SOLAR_EQUATORIAL_X";"SATURN_SOLAR_EQUATORIAL_Y";"SATURN_SOLAR_EQUATORIAL_Z";"SATURN_ALTITUDE";"ENCELADUS_ENCOUNTER_NUMBER";"ENCELADUS_RADIUS";"ENCELADUS_COROTATIONAL_X";"ENCELADUS_COROTATIONAL_Y";"ENCELADUS_COROTATIONAL_Z";"ENCELADUS_TRUE_ANOMALY";"ENCELADUS_PERIAPSIS_TIME";"JUPITER_RADIUS";"JUPITER_SYSTEMIII_LONGITUDE";"JUPITER_MAGNETIC_LATITUDE";"JUPITER_MAGNETIC_LOCAL_TIME";"JUPITER_L";"IO_PHASE";"EARTH_RADIUS";"EARTH_MAGNETIC_LATITUDE";"EARTH_LOCAL_TIME";"EARTH_L"
"[UTC]";"[0=Saturn, 1=Enceladus, 2=Jupiter, 3=Earth]";"[cm-3]";"[0=automated, 1=manual]";"[normalized density error]";"[Hz]";"[Hz]";"[0=upper hybrid frequency, 1=plasma frequency cutoff]";"[Hz]";"[Hz]";"[Hz]";"[Hz}";"[0, A, B, C, 3, 4, ... , 292, 293]";"[Rs where 1Rs=60268km]";"[degrees]";"[degrees]";"[degrees]";"[degrees]";"[degrees]";"[hours]";"[degrees]";"[degrees where offset=2293km north]";"[Rs where 1Rs=60268km]";"[Rs where 1Rs=60268km and offset=2293km north]";"[Rs where 1Rs=60268km]";"[Rs where 1Rs=60268km]";"[Rs where 1Rs=60268km]";"[km where ellipsoid a,b=60268km and c=54364km]";"[E0, E1, E2, ... , E21, E22]";"[Renc where 1Renc=252.1km]";"[Renc where 1Renc=252.1km]";"[Renc where 1Renc=252.1km]";"[Renc where 1Renc=252.1km]";"[degrees]";"[UTC]";"[Rj where 1Rj=71492km]";"[degrees]";"[degrees using JRM09 model]";"[hours using JRM09 model]";"[Rj where 1Rj=71492km]";"[degrees]";"[Re where 1Re=6378.1366km]";"[degrees]";"[hours]";"[Re where 1Re=6378.1366km]"
2012-04-14T04:56:26.773Z;0;5.0180e+00;0;     0.074;   671.804;  20126.922; 0;  20115.707;  20126.922;  20454.414;  19782.609;164;   8.502;   8.053;;; 302.180; 268.580;  20.744;   0.296;   0.040;   8.503;   8.493;  -5.596;   6.401;   0.044;;;;;;;;;;;;;;;;;;
2012-04-14T04:56:58.773Z;0;4.9450e+00;0;     0.076;   675.024;  19980.516; 0;  19969.109;  19980.516;  20309.475;  19634.449;164;   8.498;   8.328;;; 302.452; 268.852;  20.746;   0.296;   0.040;   8.498;   8.489;  -5.596;   6.395;   0.044;;;;;;;;;;;;;;;;;;
2012-04-14T04:57:30.773Z;0;4.9480e+00;0;     0.096;   675.024;  19987.447; 0;  19976.045;  19987.447;  20316.408;  19641.385;164;   8.494;   8.602;;; 302.725; 269.125;  20.747;   0.296;   0.039;   8.494;   8.485;  -5.596;   6.390;   0.044;;;;;;;;;;;;;;;;;;
2012-04-14T04:58:02.772Z;0;5.3510e+00;0;     0.135;   675.024;  20782.969; 0;  20772.004;  20782.969;  21112.258;  20437.234;164;   8.489;   8.876;;; 302.998; 269.398;  20.749;   0.296;   0.039;   8.490;   8.480;  -5.596;   6.384;   0.044;;;;;;;;;;;;;;;;;;
2012-04-14T04:58:34.772Z;0;5.5510e+00;0;     0.193;   679.448;  21168.211; 0;  21157.305;  21168.211;  21499.756;  20820.307;164;   8.485;   9.151;;; 303.271; 269.671;  20.751;   0.296;   0.039;   8.485;   8.476;  -5.596;   6.378;   0.044;;;;;;;;;;;;;;;;;;
2012-04-14T04:59:06.772Z;0;6.2020e+00;0;     0.189;   679.448;  22373.156; 0;  22362.836;  22373.156;  22705.141;  22025.693;164;   8.481;   9.425;;; 303.543; 269.943;  20.753;   0.296;   0.039;   8.481;   8.472;  -5.596;   6.372;   0.044;;;;;;;;;;;;;;;;;;
2012-04-14T04:59:38.772Z;0;5.2590e+00;0;     0.231;   679.448;  20605.557; 0;  20594.352;  20605.557;  20936.877;  20257.430;164;   8.476;   9.699;;; 303.816; 270.216;  20.754;   0.295;   0.038;   8.477;   8.467;  -5.596;   6.366;   0.044;;;;;;;;;;;;;;;;;;
2012-04-14T05:00:10.772Z;0;6.1680e+00;0;     0.179;   679.448;  22312.973; 0;  22302.625;  22312.973;  22644.938;  21965.488;164;   8.472;   9.973;;; 304.089; 270.489;  20.756;   0.295;   0.038;   8.472;   8.463;  -5.596;   6.361;   0.044;;;;;;;;;;;;;;;;;;
2012-04-14T05:01:14.771Z;0;6.6610e+00;0;     0.143;   684.348;  23187.066; 0;  23176.965;  23187.066;  23521.664;  22837.316;164;   8.463;  10.522;;; 304.641; 271.041;  20.759;   0.295;   0.038;   8.463;   8.454;  -5.596;   6.349;   0.044;;;;;;;;;;;;;;;;;;
2012-04-14T05:02:50.771Z;0;6.6410e+00;0;     0.151;   685.552;  23151.611; 0;  23141.459;  23151.611;  23486.773;  22801.221;164;   8.450;  11.344;;; 305.469; 271.869;  20.765;   0.295;   0.037;   8.450;   8.441;  -5.596;   6.332;   0.043;;;;;;;;;;;;;;;;;;
2012-04-14T05:03:22.770Z;0;6.8900e+00;0;     0.153;   685.552;  23581.551; 0;  23571.584;  23581.551;  23916.852;  23231.301;164;   8.446;  11.618;;; 305.746; 272.146;  20.766;   0.295;   0.037;   8.446;   8.437;  -5.596;   6.326;   0.043;;;;;;;;;;;;;;;;;;
2012-04-14T05:03:59.145Z;0;7.1990e+00;0;     0.160;   685.552;  24103.541; 0;  24093.789;  24103.541;  24439.004;  23753.451;164;   8.441;  11.930;;; 306.061; 272.461;  20.768;   0.294;   0.036;   8.441;   8.432;  -5.596;   6.319;   0.043;;;;;;;;;;;;;;;;;;
2012-04-14T05:04:26.770Z;0;6.7940e+00;0;     0.159;   685.552;  23416.389; 0;  23406.352;  23416.389;  23751.637;  23066.086;164;   8.437;  12.166;;; 306.300; 272.700;  20.770;   0.294;   0.036;   8.437;   8.428;  -5.596;   6.314;   0.043;;;;;;;;;;;;;;;;;;
2012-04-14T05:06:02.769Z;0;5.2340e+00;0;     0.215;   696.304;  20556.127; 0;  20544.330;  20556.127;  20895.432;  20199.129;164;   8.424;  12.988;;; 307.134; 273.534;  20.775;   0.294;   0.035;   8.424;   8.415;  -5.596;   6.297;   0.043;;;;;;;;;;;;;;;;;;
2012-04-14T05:06:34.769Z;0;5.3750e+00;0;     0.148;   699.888;  20831.941; 0;  20820.182;  20831.941;  21173.066;  20473.178;164;   8.420;  13.262;;; 307.412; 273.812;  20.777;   0.294;   0.035;   8.420;   8.411;  -5.596;   6.291;   0.043;;;;;;;;;;;;;;;;;;
2012-04-14T05:07:06.769Z;0;5.1020e+00;0;     0.108;   699.888;  20295.238; 0;  20283.166;  20295.238;  20636.129;  19936.242;164;   8.415;  13.536;;; 307.691; 274.091;  20.779;   0.294;   0.035;   8.416;   8.407;  -5.596;   6.285;   0.043;;;;;;;;;;;;;;;;;;
2012-04-14T05:09:14.768Z;0;5.1070e+00;0;     0.203;   709.520;  20305.289; 0;  20292.889;  20305.289;  20650.750;  19941.230;164;   8.398;  14.631;;; 308.807; 275.207;  20.786;   0.293;   0.034;   8.398;   8.389;  -5.596;   6.262;   0.043;;;;;;;;;;;;;;;;;;
2012-04-14T05:09:46.768Z;0;5.6850e+00;0;     0.218;   709.520;  21422.605; 0;  21410.852;  21422.605;  21768.551;  21059.031;164;   8.394;  14.904;;; 309.087; 275.487;  20.788;   0.293;   0.033;   8.394;   8.385;  -5.596;   6.256;   0.043;;;;;;;;;;;;;;;;;;
2012-04-14T05:10:18.768Z;0;5.1430e+00;0;     0.192;   709.520;  20376.996; 0;  20364.641;  20376.996;  20722.490;  20012.969;164;   8.389;  15.178;;; 309.364; 275.764;  20.789;   0.293;   0.033;   8.390;   8.381;  -5.596;   6.250;   0.043;;;;;;;;;;;;;;;;;;
2012-04-14T05:10:50.768Z;0;5.1680e+00;0;     0.206;   708.820;  20426.652; 0;  20414.350;  20426.652;  20771.836;  20063.016;164;   8.385;  15.452;;; 309.639; 276.039;  20.791;   0.293;   0.033;   8.385;   8.376;  -5.596;   6.244;   0.043;;;;;;;;;;;;;;;;;;
2012-04-14T05:11:22.767Z;0;6.6320e+00;0;     0.180;   708.820;  23136.160; 0;  23125.299;  23136.160;  23482.426;  22773.605;164;   8.381;  15.725;;; 309.913; 276.313;  20.793;   0.293;   0.033;   8.381;   8.372;  -5.596;   6.238;   0.043;;;;;;;;;;;;;;;;;;
2012-04-14T05:11:54.767Z;0;6.2850e+00;0;     0.183;   708.820;  22523.449; 0;  22512.293;  22523.449;  22869.492;  22160.672;164;   8.376;  15.999;;; 310.186; 276.586;  20.795;   0.292;   0.032;   8.376;   8.368;  -5.596;   6.232;   0.043;;;;;;;;;;;;;;;;;;
2012-04-14T05:13:30.767Z;0;6.6990e+00;0;     0.194;   721.672;  23253.141; 0;  23241.939;  23253.141;  23605.576;  22883.904;164;   8.363;  16.820;;; 311.006; 277.406;  20.800;   0.292;   0.031;   8.363;   8.354;  -5.596;   6.215;   0.043;;;;;;;;;;;;;;;;;;
2012-04-14T05:14:02.766Z;0;6.7190e+00;0;     0.178;   721.672;  23288.127; 0;  23276.941;  23288.127;  23640.574;  22918.902;164;   8.359;  17.093;;; 311.278; 277.678;  20.802;   0.292;   0.031;   8.359;   8.350;  -5.596;   6.209;   0.043;;;;;;;;;;;;;;;;;;
2012-04-14T05:15:06.766Z;0;6.2520e+00;0;     0.189;   725.088;  22464.650; 0;  22452.945;  22464.650;  22818.416;  22093.328;164;   8.350;  17.640;;; 311.823; 278.223;  20.805;   0.292;   0.031;   8.350;   8.341;  -5.596;   6.197;   0.043;;;;;;;;;;;;;;;;;;
2012-04-14T05:15:38.766Z;0;6.2200e+00;0;     0.199;   725.088;  22407.543; 0;  22395.809;  22407.543;  22761.287;  22036.199;164;   8.346;  17.913;;; 312.094; 278.494;  20.807;   0.292;   0.030;   8.346;   8.337;  -5.596;   6.191;   0.042;;;;;;;;;;;;;;;;;;
2012-04-14T05:16:42.765Z;0;6.2670e+00;0;     0.197;   729.064;  22493.057; 0;  22481.238;  22493.057;  22848.725;  22119.662;164;   8.337;  18.460;;; 312.636; 279.036;  20.811;   0.291;   0.030;   8.337;   8.328;  -5.596;   6.180;   0.042;;;;;;;;;;;;;;;;;;
2012-04-14T05:17:14.765Z;0;5.7570e+00;0;     0.211;   729.064;  21558.051; 0;  21545.719;  21558.051;  21913.334;  21184.271;164;   8.333;  18.734;;; 312.907; 279.307;  20.813;   0.291;   0.030;   8.333;   8.324;  -5.596;   6.174;   0.042;;;;;;;;;;;;;;;;;;
2012-04-14T05:17:46.765Z;0;6.0300e+00;0;     0.171;   729.064;  22064.033; 0;  22051.984;  22064.033;  22419.529;  21690.465;164;   8.328;  19.007;;; 313.177; 279.577;  20.814;   0.291;   0.029;   8.328;   8.320;  -5.596;   6.168;   0.042;;;;;;;;;;;;;;;;;;
2012-04-14T05:18:50.764Z;0;5.7060e+00;0;     0.202;   733.152;  21464.066; 0;  21451.541;  21464.066;  21821.250;  21088.098;164;   8.320;  19.553;;; 313.717; 280.117;  20.818;   0.291;   0.029;   8.320;   8.311;  -5.596;   6.156;   0.042;;;;;;;;;;;;;;;;;;
2012-04-14T05:19:22.764Z;0;6.7330e+00;0;     0.147;   733.152;  23312.230; 0;  23300.699;  23312.230;  23670.158;  22937.006;164;   8.315;  19.827;;; 313.987; 280.387;  20.820;   0.291;   0.029;   8.315;   8.307;  -5.596;   6.150;   0.042;;;;;;;;;;;;;;;;;;
2012-04-14T05:19:54.764Z;0;6.7290e+00;0;     0.198;   733.152;  23306.412; 0;  23294.877;  23306.412;  23664.338;  22931.186;164;   8.311;  20.100;;; 314.256; 280.656;  20.822;   0.290;   0.028;   8.311;   8.302;  -5.596;   6.144;   0.042;;;;;;;;;;;;;;;;;;
2012-04-14T05:20:26.764Z;0;6.6270e+00;0;     0.104;   733.152;  23128.771; 0;  23117.148;  23128.771;  23486.631;  22753.479;164;   8.306;  20.373;;; 314.529; 280.929;  20.823;   0.290;   0.028;   8.307;   8.298;  -5.596;   6.139;   0.042;;;;;;;;;;;;;;;;;;
2012-04-14T05:20:58.764Z;0;6.2900e+00;0;     0.175;   739.816;  22533.568; 0;  22521.420;  22533.568;  22894.365;  22154.551;164;   8.302;  20.646;;; 314.804; 281.204;  20.825;   0.290;   0.028;   8.302;   8.293;  -5.596;   6.133;   0.042;;;;;;;;;;;;;;;;;;
2012-04-14T05:21:30.763Z;0;6.4320e+00;0;     0.203;   739.816;  22786.402; 0;  22774.389;  22786.402;  23147.301;  22407.484;164;   8.298;  20.919;;; 315.078; 281.478;  20.827;   0.290;   0.027;   8.298;   8.289;  -5.596;   6.127;   0.042;;;;;;;;;;;;;;;;;;
2012-04-14T05:22:02.763Z;0;6.3830e+00;0;     0.205;   739.816;  22698.832; 0;  22686.773;  22698.832;  23059.695;  22319.881;164;   8.293;  21.192;;; 315.354; 281.754;  20.829;   0.290;   0.027;   8.294;   8.285;  -5.596;   6.121;   0.042;;;;;;;;;;;;;;;;;;
2012-04-14T05:22:34.763Z;0;6.8350e+00;0;     0.167;   746.172;  23489.562; 0;  23477.709;  23489.562;  23853.758;  23107.586;164;   8.289;  21.465;;; 315.629; 282.029;  20.831;   0.290;   0.027;   8.289;   8.280;  -5.596;   6.115;   0.042;;;;;;;;;;;;;;;;;;
2012-04-14T05:23:38.763Z;0;6.9480e+00;0;     0.155;   746.172;  23681.855; 0;  23670.098;  23681.855;  24046.123;  23299.951;164;   8.280;  22.011;;; 316.180; 282.580;  20.834;   0.290;   0.026;   8.280;   8.272;  -5.596;   6.103;   0.042;;;;;;;;;;;;;;;;;;
2012-04-14T05:24:10.762Z;0;6.8110e+00;0;     0.198;   746.172;  23447.930; 0;  23436.055;  23447.930;  23812.109;  23065.938;164;   8.276;  22.284;;; 316.456; 282.856;  20.836;   0.289;   0.026;   8.276;   8.267;  -5.596;   6.097;   0.042;;;;;;;;;;;;;;;;;;
2012-04-14T05:24:42.762Z;0;6.5860e+00;0;     0.199;   753.648;  23058.586; 0;  23046.266;  23058.586;  23426.172;  22672.523;164;   8.271;  22.557;;; 316.733; 283.133;  20.838;   0.289;   0.026;   8.272;   8.263;  -5.596;   6.091;   0.042;;;;;;;;;;;;;;;;;;
2012-04-14T05:25:14.762Z;0;6.7870e+00;0;     0.185;   753.648;  23406.529; 0;  23394.393;  23406.529;  23774.252;  23020.604;164;   8.267;  22.830;;; 317.009; 283.409;  20.840;   0.289;   0.025;   8.267;   8.258;  -5.596;   6.086;   0.042;;;;;;;;;;;;;;;;;;
2012-04-14T05:26:50.761Z;0;6.7160e+00;0;     0.171;   757.848;  23283.535; 0;  23271.199;  23283.535;  23653.207;  22895.359;164;   8.254;  23.648;;; 317.841; 284.241;  20.845;   0.289;   0.025;   8.254;   8.245;  -5.596;   6.068;   0.042;;;;;;;;;;;;;;;;;;
2012-04-14T05:27:54.761Z;0;6.0340e+00;0;     0.131;   757.848;  22072.389; 0;  22059.375;  22072.389;  22441.553;  21683.705;164;   8.245;  24.194;;; 318.396; 284.796;  20.849;   0.288;   0.024;   8.245;   8.237;  -5.595;   6.056;   0.042;;;;;;;;;;;;;;;;;;
2012-04-14T05:28:26.761Z;0;6.1770e+00;0;     0.114;   757.848;  22331.004; 0;  22318.141;  22331.004;  22700.281;  21942.434;164;   8.241;  24.467;;; 318.674; 285.074;  20.851;   0.288;   0.024;   8.241;   8.232;  -5.595;   6.050;   0.041;;;;;;;;;;;;;;;;;;
2012-04-14T05:28:58.761Z;0;5.2170e+00;0;     0.200;   762.216;  20524.676; 0;  20510.518;  20524.676;  20895.166;  20132.951;164;   8.236;  24.739;;; 318.953; 285.353;  20.853;   0.288;   0.024;   8.237;   8.228;  -5.595;   6.044;   0.041;;;;;;;;;;;;;;;;;;
2012-04-14T05:30:02.760Z;0;6.1380e+00;0;     0.198;   762.216;  22261.045; 0;  22247.992;  22261.045;  22632.363;  21870.148;164;   8.228;  25.285;;; 319.510; 285.910;  20.856;   0.288;   0.023;   8.228;   8.219;  -5.595;   6.032;   0.041;;;;;;;;;;;;;;;;;;
2012-04-14T05:30:34.760Z;0;6.0040e+00;0;     0.077;   765.660;  22016.529; 0;  22003.211;  22016.529;  22389.371;  21623.711;164;   8.223;  25.557;;; 319.783; 286.183;  20.858;   0.288;   0.023;   8.224;   8.215;  -5.595;   6.026;   0.041;;;;;;;;;;;;;;;;;;
2012-04-14T05:31:06.760Z;0;5.5900e+00;0;     0.196;   765.660;  21245.578; 0;  21231.777;  21245.578;  21618.059;  20852.398;164;   8.219;  25.830;;; 320.057; 286.457;  20.860;   0.288;   0.022;   8.219;   8.210;  -5.595;   6.021;   0.041;;;;;;;;;;;;;;;;;;
2012-04-14T05:33:51.134Z;0;6.0530e+00;0;     0.091;   771.400;  22106.674; 0;  22093.211;  22106.674;  22482.277;  21710.877;164;   8.196;  27.229;;; 321.455; 287.855;  20.870;   0.287;   0.021;   8.197;   8.188;  -5.595;   5.990;   0.041;;;;;;;;;;;;;;;;;;
2012-04-14T05:34:18.759Z;0;6.5950e+00;0;     0.122;   771.400;  23074.221; 0;  23061.322;  23074.221;  23450.248;  22678.848;164;   8.193;  27.465;;; 321.689; 288.089;  20.871;   0.287;   0.021;   8.193;   8.184;  -5.595;   5.985;   0.041;;;;;;;;;;;;;;;;;;
2012-04-14T05:35:22.758Z;0;5.1240e+00;0;     0.107;   779.940;  20341.859; 0;  20326.902;  20341.859;  20720.611;  19940.672;164;   8.184;  28.009;;; 322.231; 288.631;  20.875;   0.286;   0.020;   8.184;   8.175;  -5.594;   5.973;   0.041;;;;;;;;;;;;;;;;;;
2012-04-14T05:35:54.758Z;0;6.5730e+00;0;     0.095;   779.940;  23036.480; 0;  23023.273;  23036.480;  23416.547;  22636.605;164;   8.179;  28.282;;; 322.501; 288.901;  20.877;   0.286;   0.020;   8.180;   8.171;  -5.594;   5.967;   0.041;;;;;;;;;;;;;;;;;;
2012-04-14T05:38:02.757Z;0;5.4840e+00;0;     0.192;   783.804;  21043.582; 0;  21028.980;  21043.582;  21424.533;  20640.729;164;   8.162;  29.371;;; 323.579; 289.979;  20.884;   0.286;   0.019;   8.162;   8.153;  -5.594;   5.943;   0.041;;;;;;;;;;;;;;;;;;
2012-04-14T05:39:06.757Z;0;6.5680e+00;0;     0.104;   788.620;  23028.201; 0;  23014.693;  23028.201;  23412.381;  22623.762;164;   8.153;  29.915;;; 324.117; 290.517;  20.888;   0.285;   0.018;   8.153;   8.145;  -5.594;   5.932;   0.041;;;;;;;;;;;;;;;;;;
2012-04-14T05:39:38.757Z;0;6.6340e+00;0;     0.066;   788.620;  23143.045; 0;  23129.605;  23143.045;  23527.275;  22738.656;164;   8.149;  30.187;;; 324.385; 290.785;  20.890;   0.285;   0.018;   8.149;   8.140;  -5.594;   5.926;   0.041;;;;;;;;;;;;;;;;;;
2012-04-14T05:41:14.756Z;0;6.2780e+00;0;     0.063;   792.148;  22514.363; 0;  22500.424;  22514.363;  22899.982;  22107.836;164;   8.136;  31.003;;; 325.194; 291.594;  20.896;   0.285;   0.017;   8.136;   8.127;  -5.593;   5.908;   0.040;;;;;;;;;;;;;;;;;;
2012-04-14T05:41:46.756Z;0;6.8120e+00;0;     0.060;   792.148;  23451.387; 0;  23438.004;  23451.387;  23837.424;  23045.277;164;   8.131;  31.275;;; 325.465; 291.865;  20.897;   0.285;   0.017;   8.131;   8.123;  -5.593;   5.902;   0.040;;;;;;;;;;;;;;;;;;
2012-04-14T05:42:18.756Z;0;7.6110e+00;0;     0.086;   792.148;  24787.502; 0;  24774.842;  24787.502;  25174.080;  24381.934;164;   8.127;  31.547;;; 325.735; 292.135;  20.899;   0.285;   0.016;   8.127;   8.118;  -5.593;   5.896;   0.040;;;;;;;;;;;;;;;;;;
2012-04-14T05:42:50.755Z;0;6.8130e+00;0;     0.129;   797.608;  23452.543; 0;  23438.977;  23452.543;  23841.172;  23043.564;164;   8.122;  31.819;;; 326.005; 292.405;  20.901;   0.284;   0.016;   8.123;   8.114;  -5.593;   5.890;   0.040;;;;;;;;;;;;;;;;;;
2012-04-14T05:43:22.755Z;0;7.3880e+00;0;     0.087;   797.608;  24421.342; 0;  24408.312;  24421.342;  24810.375;  24012.768;164;   8.118;  32.091;;; 326.276; 292.676;  20.903;   0.284;   0.016;   8.118;   8.109;  -5.593;   5.884;   0.040;;;;;;;;;;;;;;;;;;
2012-04-14T05:44:26.755Z;0;6.3630e+00;0;     0.073;   797.608;  22665.797; 0;  22651.758;  22665.797;  23054.072;  22256.465;164;   8.109;  32.634;;; 326.816; 293.216;  20.907;   0.284;   0.015;   8.109;   8.101;  -5.593;   5.872;   0.040;;;;;;;;;;;;;;;;;;
2012-04-14T05:44:58.755Z;0;7.4080e+00;0;     0.063;   801.780;  24454.564; 0;  24441.418;  24454.564;  24845.594;  24043.814;164;   8.105;  32.906;;; 327.086; 293.486;  20.909;   0.284;   0.015;   8.105;   8.096;  -5.593;   5.866;   0.040;;;;;;;;;;;;;;;;;;
2012-04-14T05:46:02.754Z;0;7.4010e+00;0;     0.079;   801.780;  24443.254; 0;  24430.100;  24443.254;  24834.279;  24032.500;164;   8.096;  33.450;;; 327.626; 294.026;  20.913;   0.284;   0.014;   8.096;   8.088;  -5.592;   5.854;   0.040;;;;;;;;;;;;;;;;;;
2012-04-14T05:46:34.754Z;0;7.2600e+00;0;     0.067;   811.580;  24209.090; 0;  24195.482;  24209.090;  24604.676;  23793.096;164;   8.092;  33.721;;; 327.897; 294.297;  20.914;   0.283;   0.014;   8.092;   8.083;  -5.592;   5.848;   0.040;;;;;;;;;;;;;;;;;;
2012-04-14T05:47:06.754Z;0;6.6960e+00;0;     0.076;   811.580;  23251.723; 0;  23237.555;  23251.723;  23646.887;  22835.307;164;   8.087;  33.993;;; 328.167; 294.567;  20.916;   0.283;   0.014;   8.087;   8.079;  -5.592;   5.842;   0.040;;;;;;;;;;;;;;;;;;
2012-04-14T05:47:38.754Z;0;6.7290e+00;0;     0.082;   811.580;  23309.025; 0;  23294.893;  23309.025;  23704.217;  22892.637;164;   8.083;  34.265;;; 328.437; 294.837;  20.918;   0.283;   0.014;   8.083;   8.074;  -5.592;   5.836;   0.040;;;;;;;;;;;;;;;;;;
2012-04-14T05:48:10.753Z;0;7.0250e+00;0;     0.066;   811.580;  23814.475; 0;  23800.641;  23814.475;  24209.891;  23398.311;164;   8.078;  34.536;;; 328.707; 295.107;  20.920;   0.283;   0.013;   8.079;   8.070;  -5.592;   5.830;   0.040;;;;;;;;;;;;;;;;;;
2012-04-14T05:48:42.753Z;0;7.0040e+00;0;     0.115;   816.172;  23779.941; 0;  23765.932;  23779.941;  24177.520;  23361.348;164;   8.074;  34.808;;; 328.977; 295.377;  20.922;   0.283;   0.013;   8.074;   8.066;  -5.592;   5.824;   0.040;;;;;;;;;;;;;;;;;;
2012-04-14T05:49:14.753Z;0;7.2170e+00;0;     0.131;   816.172;  24138.617; 0;  24124.814;  24138.617;  24536.352;  23720.180;164;   8.069;  35.079;;; 329.247; 295.647;  20.924;   0.283;   0.013;   8.070;   8.061;  -5.592;   5.818;   0.040;;;;;;;;;;;;;;;;;;
2012-04-14T05:49:46.753Z;0;6.9090e+00;0;     0.177;   816.172;  23618.814; 0;  23604.709;  23618.814;  24016.322;  23200.150;164;   8.065;  35.351;;; 329.516; 295.916;  20.926;   0.283;   0.012;   8.065;   8.057;  -5.592;   5.812;   0.040;;;;;;;;;;;;;;;;;;
2012-04-14T05:50:18.753Z;0;6.9450e+00;0;     0.073;   816.172;  23679.924; 0;  23665.854;  23679.924;  24077.459;  23261.287;164;   8.061;  35.622;;; 329.788; 296.188;  20.928;   0.282;   0.012;   8.061;   8.052;  -5.591;   5.806;   0.040;;;;;;;;;;;;;;;;;;
2012-04-14T05:50:50.752Z;0;7.6360e+00;0;     0.082;   825.804;  24828.703; 0;  24814.967;  24828.703;  25231.303;  24405.500;164;   8.056;  35.894;;; 330.061; 296.461;  20.930;   0.282;   0.012;   8.056;   8.048;  -5.591;   5.800;   0.040;;;;;;;;;;;;;;;;;;
2012-04-14T05:51:22.752Z;0;6.6920e+00;0;     0.117;   825.804;  23244.473; 0;  23229.799;  23244.473;  23646.371;  22820.566;164;   8.052;  36.165;;; 330.334; 296.734;  20.932;   0.282;   0.011;   8.052;   8.043;  -5.591;   5.794;   0.040;;;;;;;;;;;;;;;;;;
2012-04-14T05:51:54.752Z;0;7.1500e+00;0;     0.108;   825.804;  24026.070; 0;  24011.875;  24026.070;  24428.326;  23602.521;164;   8.047;  36.436;;; 330.607; 297.007;  20.934;   0.282;   0.011;   8.048;   8.039;  -5.591;   5.788;   0.040;;;;;;;;;;;;;;;;;;
2012-04-14T05:52:58.752Z;0;7.1840e+00;0;     0.068;   828.772;  24083.297; 0;  24069.033;  24083.297;  24486.986;  23658.213;164;   8.039;  36.979;;; 331.155; 297.555;  20.938;   0.282;   0.011;   8.039;   8.030;  -5.591;   5.776;   0.040;;;;;;;;;;;;;;;;;;
2012-04-14T05:54:34.751Z;0;7.3530e+00;0;     0.074;   837.872;  24364.148; 0;  24349.736;  24364.148;  24772.277;  23934.404;164;   8.025;  37.793;;; 331.977; 298.377;  20.943;   0.281;   0.010;   8.026;   8.017;  -5.590;   5.758;   0.039;;;;;;;;;;;;;;;;;;
2012-04-14T05:55:06.751Z;0;6.5410e+00;0;     0.107;   837.872;  22981.611; 0;  22966.332;  22981.611;  23389.090;  22551.217;164;   8.021;  38.064;;; 332.252; 298.652;  20.945;   0.281;   0.009;   8.021;   8.013;  -5.590;   5.752;   0.039;;;;;;;;;;;;;;;;;;
2012-04-14T05:55:38.750Z;0;6.0740e+00;0;     0.183;   837.872;  22146.980; 0;  22131.125;  22146.980;  22554.025;  21716.154;164;   8.017;  38.335;;; 332.527; 298.927;  20.947;   0.281;   0.009;   8.017;   8.008;  -5.590;   5.746;   0.039;;;;;;;;;;;;;;;;;;
2012-04-14T05:56:10.750Z;0;6.2840e+00;0;     0.226;   837.872;  22525.797; 0;  22510.209;  22525.797;  22933.043;  22095.170;164;   8.012;  38.606;;; 332.803; 299.203;  20.949;   0.281;   0.009;   8.012;   8.004;  -5.590;   5.740;   0.039;;;;;;;;;;;;;;;;;;
2012-04-14T05:56:42.750Z;0;6.2120e+00;0;     0.195;   846.608;  22397.713; 0;  22381.707;  22397.713;  22809.014;  21962.406;164;   8.008;  38.877;;; 333.078; 299.478;  20.951;   0.281;   0.008;   8.008;   7.999;  -5.590;   5.734;   0.039;;;;;;;;;;;;;;;;;;
2012-04-14T05:57:14.750Z;0;7.4040e+00;0;     0.092;   846.608;  24449.211; 0;  24434.549;  24449.211;  24861.520;  24014.910;164;   8.003;  39.148;;; 333.354; 299.754;  20.953;   0.281;   0.008;   8.004;   7.995;  -5.589;   5.728;   0.039;;;;;;;;;;;;;;;;;;
2012-04-14T05:57:46.750Z;0;6.1030e+00;0;     0.216;   846.608;  22200.410; 0;  22184.262;  22200.410;  22611.604;  21764.996;164;   7.999;  39.419;;; 333.630; 300.030;  20.955;   0.280;   0.008;   7.999;   7.991;  -5.589;   5.722;   0.039;;;;;;;;;;;;;;;;;;
2012-04-14T05:58:18.749Z;0;8.2710e+00;0;     0.189;   846.608;  25840.365; 0;  25826.492;  25840.365;  26253.266;  25406.658;164;   7.994;  39.690;;; 333.907; 300.307;  20.957;   0.280;   0.008;   7.995;   7.986;  -5.589;   5.716;   0.039;;;;;;;;;;;;;;;;;;
2012-04-14T05:59:22.749Z;0;8.4240e+00;0;     0.211;   852.600;  26078.051; 0;  26064.109;  26078.051;  26493.896;  25641.295;164;   7.986;  40.232;;; 334.460; 300.860;  20.961;   0.280;   0.007;   7.986;   7.977;  -5.589;   5.704;   0.039;;;;;;;;;;;;;;;;;;
2012-04-14T05:59:54.749Z;0;8.5470e+00;0;     0.241;   852.600;  26267.334; 0;  26253.494;  26267.334;  26683.254;  25830.654;164;   7.981;  40.503;;; 334.737; 301.137;  20.963;   0.280;   0.007;   7.981;   7.973;  -5.589;   5.698;   0.039;;;;;;;;;;;;;;;;;;